Location: Albuquerque Trailhead
(34.7934°N, 106.3736°W)
Time: 23:58:11
(UTC+00:00)

Landsat 4 - Pass Details

Date: 20 June 2021
Orbit: 503 x 522 km, 98.2° (Epoch: 27 July)

Event Time Altitude Azimuth Distance (km) Brightness Sun altitude
Rises 09:22:10 0° 10° (N) 2,646 8.4 -23.5°
Reaches altitude 10° 09:24:17 10° 10° (N) 1,751 7.3 -23.3°
Enters shadow 09:27:44 71° 337° (NNW) 548 3.8 -22.9°
